| time (UTC) | temp F | wind direction | speed knots | gust knots | rain 1hr in | rain 24hr in | rain mn in | humidity % | barometer mb |
| 20260505140433 | 53 | 16 | 11.3 | 16.5 | 0.00 | 0.00 | 0.00 | 51 | 1009.9 |
| 20260505124847 | 54 | 353 | 10.4 | 14.8 | 0.00 | 0.00 | 0.00 | 53 | 1008.0 |
| 20260505124344 | 54 | 351 | 9.6 | 13.9 | 0.00 | 0.00 | 0.00 | 54 | 1008.1 |
| 20260505123839 | 54 | 343 | 13.0 | 18.2 | 0.00 | 0.00 | 0.00 | 54 | 1007.8 |
| 20260505123337 | 54 | 340 | 10.4 | 16.5 | 0.00 | 0.00 | 0.00 | 54 | 1007.8 |
| 20260505122832 | 54 | 2 | 10.4 | 13.9 | 0.00 | 0.00 | 0.00 | 54 | 1007.7 |
| 20260505122330 | 54 | 353 | 10.4 | 12.2 | 0.00 | 0.00 | 0.00 | 54 | 1007.3 |
| 20260505121826 | 54 | 351 | 8.7 | 14.8 | 0.00 | 0.00 | 0.00 | 54 | 1007.6 |
| 20260505121324 | 54 | 15 | 11.3 | 16.5 | 0.00 | 0.00 | 0.00 | 55 | 1007.2 |
| 20260505120820 | 54 | 3 | 10.4 | 14.8 | 0.00 | 0.00 | 0.00 | 55 | 1007.1 |
| 20260505120316 | 55 | 19 | 13.0 | 15.6 | 0.00 | 0.00 | 0.00 | 55 | 1007.3 |
| 20260505115814 | 55 | 8 | 10.4 | 16.5 | 0.00 | 0.00 | 0.00 | 56 | 1007.3 |
| 20260505115312 | 55 | 359 | 12.2 | 13.0 | 0.00 | 0.00 | 0.00 | 56 | 1007.2 |
| 20260505114809 | 55 | 359 | 11.3 | 15.6 | 0.00 | 0.00 | 0.00 | 56 | 1007.0 |
| 20260505114305 | 55 | 1 | 11.3 | 13.9 | 0.00 | 0.00 | 0.00 | 56 | 1007.2 |
| 20260505113757 | 55 | 21 | 13.0 | 15.6 | 0.00 | 0.00 | 0.00 | 56 | 1007.1 |
| 20260505113253 | 55 | 18 | 10.4 | 13.0 | 0.00 | 0.00 | 0.00 | 57 | 1007.2 |
| 20260505112748 | 56 | 354 | 11.3 | 19.1 | 0.00 | 0.00 | 0.00 | 57 | 1007.0 |
| 20260505112246 | 56 | 343 | 9.6 | 15.6 | 0.00 | 0.00 | 0.00 | 58 | 1007.1 |
| 20260505111741 | 56 | 3 | 16.5 | 17.4 | 0.00 | 0.00 | 0.00 | 58 | 1007.0 |
| 20260505111237 | 56 | 8 | 10.4 | 12.2 | 0.00 | 0.00 | 0.00 | 58 | 1007.0 |
| 20260505110733 | 57 | 0 | 9.6 | 16.5 | 0.00 | 0.00 | 0.00 | 58 | 1006.8 |
| 20260505110231 | 57 | 352 | 10.4 | 19.1 | 0.00 | 0.00 | 0.00 | 58 | 1006.7 |
| 20260505102207 | 60 | 329 | 11.3 | 18.2 | 0.00 | 0.00 | 0.00 | 48 | 1006.2 |
| 20260505101705 | 61 | 334 | 13.0 | 20.0 | 0.00 | 0.00 | 0.00 | 44 | 1005.8 |
| 20260505101201 | 62 | 350 | 15.6 | 20.9 | 0.00 | 0.00 | 0.00 | 41 | 1005.8 |
| 20260505100657 | 63 | 328 | 16.5 | 22.6 | 0.00 | 0.00 | 0.00 | 37 | 1005.6 |
| 20260505100154 | 64 | 315 | 11.3 | 20.0 | 0.00 | 0.00 | 0.00 | 34 | 1005.7 |
| 20260505095650 | 65 | 335 | 14.8 | 20.9 | 0.00 | 0.00 | 0.00 | 30 | 1005.6 |
| 20260505095148 | 66 | 318 | 9.6 | 16.5 | 0.00 | 0.00 | 0.00 | 29 | 1005.3 |
| 20260505094643 | 65 | 330 | 7.0 | 10.4 | 0.00 | 0.00 | 0.00 | 29 | 1005.2 |
| 20260505094140 | 64 | 284 | 5.2 | 7.0 | 0.00 | 0.00 | 0.00 | 31 | 1005.0 |
| 20260505093636 | 64 | 275 | 4.3 | 7.8 | 0.00 | 0.00 | 0.00 | 31 | 1004.8 |
| 20260505093134 | 64 | 287 | 3.5 | 7.8 | 0.00 | 0.00 | 0.00 | 31 | 1004.9 |
| 20260505092631 | 64 | 305 | 7.0 | 7.8 | 0.00 | 0.00 | 0.00 | 31 | 1005.2 |
| 20260505092130 | 65 | 305 | 7.0 | 8.7 | 0.00 | 0.00 | 0.00 | 30 | 1004.9 |
| 20260505091626 | 65 | 318 | 4.3 | 5.2 | 0.00 | 0.00 | 0.00 | 30 | 1004.9 |
| 20260505091124 | 65 | 216 | 2.6 | 6.1 | 0.00 | 0.00 | 0.00 | 30 | 1004.4 |
| 20260505090621 | 65 | 222 | 6.1 | 7.0 | 0.00 | 0.00 | 0.00 | 30 | 1004.2 |
| 20260505090119 | 66 | 230 | 3.5 | 7.0 | 0.00 | 0.00 | 0.00 | 29 | 1004.3 |
| 20260505085617 | 67 | 216 | 3.5 | 6.1 | 0.00 | 0.00 | 0.00 | 29 | 1004.2 |
| 20260505085115 | 67 | 233 | 0.9 | 3.5 | 0.00 | 0.00 | 0.00 | 29 | 1004.2 |
| 20260505084612 | 68 | 240 | 2.6 | 7.8 | 0.00 | 0.00 | 0.00 | 28 | 1004.1 |
| 20260505084111 | 68 | 262 | 1.7 | 7.0 | 0.00 | 0.00 | 0.00 | 28 | 1004.1 |
| 20260505083608 | 68 | 222 | 5.2 | 7.8 | 0.00 | 0.00 | 0.00 | 27 | 1003.9 |
| 20260505083104 | 68 | 235 | 5.2 | 10.4 | 0.00 | 0.00 | 0.00 | 27 | 1004.1 |
| 20260505082600 | 68 | 232 | 6.1 | 8.7 | 0.00 | 0.00 | 0.00 | 27 | 1004.1 |
| 20260505082057 | 69 | 234 | 3.5 | 7.0 | 0.00 | 0.00 | 0.00 | 27 | 1004.0 |
| 20260505081553 | 69 | 227 | 7.0 | 10.4 | 0.00 | 0.00 | 0.00 | 27 | 1004.2 |
| 20260505081050 | 69 | 267 | 2.6 | 5.2 | 0.00 | 0.00 | 0.00 | 27 | 1004.4 |
| 20260505080546 | 69 | 232 | 3.5 | 6.1 | 0.00 | 0.00 | 0.00 | 26 | 1004.3 |
| 20260505080044 | 69 | 248 | 2.6 | 8.7 | 0.00 | 0.00 | 0.00 | 26 | 1004.2 |
| 20260505075539 | 70 | 230 | 7.8 | 9.6 | 0.00 | 0.00 | 0.00 | 25 | 1004.3 |
| 20260505075036 | 70 | 221 | 4.3 | 9.6 | 0.00 | 0.00 | 0.00 | 25 | 1004.3 |
| 20260505074533 | 70 | 224 | 7.0 | 13.0 | 0.00 | 0.00 | 0.00 | 25 | 1004.4 |
| 20260505074030 | 70 | 216 | 6.1 | 9.6 | 0.00 | 0.00 | 0.00 | 25 | 1004.4 |
| 20260505073528 | 71 | 221 | 7.0 | 14.8 | 0.00 | 0.00 | 0.00 | 24 | 1004.2 |
| 20260505073026 | 71 | 220 | 7.0 | 12.2 | 0.00 | 0.00 | 0.00 | 24 | 1004.3 |
| 20260505072521 | 71 | 238 | 7.0 | 13.0 | 0.00 | 0.00 | 0.00 | 24 | 1004.1 |
| 20260505072018 | 71 | 225 | 11.3 | 14.8 | 0.00 | 0.00 | 0.00 | 24 | 1004.1 |
| 20260505071513 | 71 | 222 | 7.8 | 14.8 | 0.00 | 0.00 | 0.00 | 24 | 1004.2 |
| 20260505071012 | 71 | 237 | 11.3 | 17.4 | 0.00 | 0.00 | 0.00 | 25 | 1004.2 |
| 20260505070509 | 71 | 229 | 10.4 | 13.9 | 0.00 | 0.00 | 0.00 | 25 | 1004.3 |
| 20260505070005 | 72 | 226 | 7.8 | 16.5 | 0.00 | 0.00 | 0.00 | 24 | 1004.4 |
| 20260505065501 | 71 | 234 | 7.8 | 16.5 | 0.00 | 0.00 | 0.00 | 24 | 1004.5 |
| 20260505064957 | 72 | 226 | 7.8 | 14.8 | 0.00 | 0.00 | 0.00 | 24 | 1004.3 |
| 20260505064454 | 72 | 234 | 7.8 | 15.6 | 0.00 | 0.00 | 0.00 | 24 | 1004.4 |
| 20260505063953 | 72 | 233 | 6.1 | 14.8 | 0.00 | 0.00 | 0.00 | 24 | 1004.7 |
| 20260505063449 | 73 | 249 | 8.7 | 14.8 | 0.00 | 0.00 | 0.00 | 24 | 1004.3 |
| 20260505062945 | 73 | 241 | 7.8 | 14.8 | 0.00 | 0.00 | 0.00 | 24 | 1004.3 |
| 20260505062443 | 73 | 244 | 10.4 | 15.6 | 0.00 | 0.00 | 0.00 | 24 | 1004.5 |
| 20260505061939 | 73 | 223 | 9.6 | 19.1 | 0.00 | 0.00 | 0.00 | 23 | 1004.5 |
| 20260505061438 | 73 | 220 | 14.8 | 17.4 | 0.00 | 0.00 | 0.00 | 23 | 1004.4 |
| 20260505060935 | 73 | 240 | 12.2 | 19.1 | 0.00 | 0.00 | 0.00 | 23 | 1004.5 |
| 20260505060432 | 73 | 225 | 10.4 | 15.6 | 0.00 | 0.00 | 0.00 | 23 | 1004.5 |
| 20260505055928 | 73 | 228 | 9.6 | 18.2 | 0.00 | 0.00 | 0.00 | 23 | 1004.5 |
| 20260505055424 | 73 | 229 | 13.9 | 16.5 | 0.00 | 0.00 | 0.00 | 23 | 1004.4 |
| 20260505054921 | 73 | 226 | 13.9 | 15.6 | 0.00 | 0.00 | 0.00 | 23 | 1004.4 |
| 20260505054418 | 73 | 244 | 12.2 | 17.4 | 0.00 | 0.00 | 0.00 | 23 | 1004.2 |
| 20260505053916 | 73 | 221 | 8.7 | 17.4 | 0.00 | 0.00 | 0.00 | 23 | 1004.4 |
| 20260505053413 | 73 | 230 | 12.2 | 16.5 | 0.00 | 0.00 | 0.00 | 23 | 1004.4 |
| 20260505052910 | 73 | 236 | 12.2 | 18.2 | 0.00 | 0.00 | 0.00 | 23 | 1004.5 |
| 20260505052407 | 73 | 228 | 9.6 | 16.5 | 0.00 | 0.00 | 0.00 | 23 | 1004.3 |
| 20260505051904 | 73 | 224 | 11.3 | 18.2 | 0.00 | 0.00 | 0.00 | 23 | 1004.5 |
| 20260505051401 | 73 | 228 | 8.7 | 19.1 | 0.00 | 0.00 | 0.00 | 24 | 1004.5 |
| 20260505050859 | 73 | 226 | 9.6 | 15.6 | 0.00 | 0.00 | 0.00 | 24 | 1004.4 |
| 20260505050357 | 73 | 224 | 8.7 | 16.5 | 0.00 | 0.00 | 0.00 | 23 | 1004.5 |
| 20260505041325 | 73 | 228 | 8.7 | 13.9 | 0.00 | 0.00 | 0.00 | 24 | 1004.5 |
| 20260505040822 | 74 | 218 | 9.6 | 15.6 | 0.00 | 0.00 | 0.00 | 24 | 1004.9 |
| 20260505040320 | 74 | 229 | 9.6 | 16.5 | 0.00 | 0.00 | 0.00 | 24 | 1004.7 |
| 20260505035816 | 74 | 218 | 11.3 | 18.2 | 0.00 | 0.00 | 0.00 | 24 | 1004.7 |
| 20260505035311 | 74 | 227 | 9.6 | 15.6 | 0.00 | 0.00 | 0.00 | 24 | 1004.5 |
| 20260505034808 | 74 | 234 | 8.7 | 20.0 | 0.00 | 0.00 | 0.00 | 23 | 1004.5 |
| 20260505034300 | 74 | 218 | 6.1 | 16.5 | 0.00 | 0.00 | 0.00 | 23 | 1004.7 |
| 20260505033756 | 74 | 206 | 7.0 | 14.8 | 0.00 | 0.00 | 0.00 | 23 | 1004.9 |
| 20260505033254 | 74 | 229 | 10.4 | 14.8 | 0.00 | 0.00 | 0.00 | 23 | 1004.7 |
| 20260505032752 | 74 | 221 | 7.8 | 14.8 | 0.00 | 0.00 | 0.00 | 23 | 1004.7 |
| 20260505032248 | 74 | 221 | 7.8 | 15.6 | 0.00 | 0.00 | 0.00 | 23 | 1004.7 |
| 20260505031745 | 75 | 232 | 9.6 | 13.0 | 0.00 | 0.00 | 0.00 | 22 | 1004.7 |
| 20260505031241 | 75 | 227 | 12.2 | 13.0 | 0.00 | 0.00 | 0.00 | 21 | 1004.8 |
| 20260505030738 | 75 | 234 | 12.2 | 14.8 | 0.00 | 0.00 | 0.00 | 21 | 1004.8 |
| 20260505030235 | 75 | 233 | 7.8 | 13.0 | 0.00 | 0.00 | 0.00 | 20 | 1004.7 |
| 20260505025730 | 75 | 234 | 9.6 | 13.9 | 0.00 | 0.00 | 0.00 | 19 | 1004.7 |
| 20260505025229 | 75 | 227 | 9.6 | 12.2 | 0.00 | 0.00 | 0.00 | 18 | 1004.9 |
| 20260505024727 | 75 | 213 | 7.8 | 12.2 | 0.00 | 0.00 | 0.00 | 18 | 1004.8 |
| 20260505024224 | 76 | 202 | 7.8 | 11.3 | 0.00 | 0.00 | 0.00 | 18 | 1004.7 |
| 20260505023721 | 77 | 221 | 7.8 | 17.4 | 0.00 | 0.00 | 0.00 | 17 | 1004.7 |
| 20260505023218 | 77 | 228 | 12.2 | 13.9 | 0.00 | 0.00 | 0.00 | 17 | 1004.5 |
| 20260505022716 | 77 | 229 | 10.4 | 13.0 | 0.00 | 0.00 | 0.00 | 16 | 1004.3 |
| 20260505022212 | 77 | 226 | 7.0 | 13.0 | 0.00 | 0.00 | 0.00 | 16 | 1004.5 |
| 20260505021709 | 77 | 233 | 8.7 | 13.9 | 0.00 | 0.00 | 0.00 | 16 | 1004.5 |
| 20260505021206 | 77 | 229 | 15.6 | 16.5 | 0.00 | 0.00 | 0.00 | 16 | 1004.2 |
| 20260505020702 | 78 | 222 | 10.4 | 14.8 | 0.00 | 0.00 | 0.00 | 16 | 1004.4 |
| 20260505020157 | 78 | 231 | 9.6 | 13.9 | 0.00 | 0.00 | 0.00 | 16 | 1004.3 |
| 20260505015655 | 78 | 227 | 13.9 | 18.2 | 0.00 | 0.00 | 0.00 | 15 | 1004.5 |
| 20260505015151 | 78 | 229 | 11.3 | 15.6 | 0.00 | 0.00 | 0.00 | 15 | 1004.3 |
| 20260505014648 | 78 | 222 | 9.6 | 13.0 | 0.00 | 0.00 | 0.00 | 15 | 1004.3 |
| 20260505014145 | 79 | 232 | 8.7 | 20.0 | 0.00 | 0.00 | 0.00 | 15 | 1004.3 |
| 20260505013643 | 79 | 212 | 7.0 | 15.6 | 0.00 | 0.00 | 0.00 | 15 | 1004.2 |
| 20260505013139 | 79 | 224 | 6.1 | 13.0 | 0.00 | 0.00 | 0.00 | 16 | 1004.1 |
| 20260505012638 | 79 | 213 | 7.0 | 11.3 | 0.00 | 0.00 | 0.00 | 16 | 1004.2 |
| 20260505012135 | 80 | 238 | 9.6 | 16.5 | 0.00 | 0.00 | 0.00 | 16 | 1004.2 |
| 20260505011630 | 80 | 230 | 10.4 | 16.5 | 0.00 | 0.00 | 0.00 | 15 | 1004.0 |
| 20260505011128 | 80 | 224 | 10.4 | 15.6 | 0.00 | 0.00 | 0.00 | 15 | 1004.1 |
| 20260505010628 | 80 | 231 | 8.7 | 14.8 | 0.00 | 0.00 | 0.00 | 15 | 1004.1 |
| 20260505010125 | 81 | 223 | 8.7 | 13.0 | 0.00 | 0.00 | 0.00 | 15 | 1004.1 |
| 20260505005621 | 81 | 221 | 13.0 | 19.1 | 0.00 | 0.00 | 0.00 | 14 | 1004.0 |
| 20260505005118 | 81 | 232 | 14.8 | 17.4 | 0.00 | 0.00 | 0.00 | 14 | 1004.2 |
| 20260505004615 | 82 | 245 | 7.8 | 15.6 | 0.00 | 0.00 | 0.00 | 14 | 1004.2 |
| 20260505004112 | 82 | 246 | 9.6 | 20.0 | 0.00 | 0.00 | 0.00 | 14 | 1004.2 |
| 20260505003609 | 82 | 227 | 14.8 | 20.0 | 0.00 | 0.00 | 0.00 | 14 | 1004.3 |
| 20260505003107 | 82 | 221 | 14.8 | 15.6 | 0.00 | 0.00 | 0.00 | 14 | 1004.3 |
| 20260505002602 | 82 | 228 | 14.8 | 16.5 | 0.00 | 0.00 | 0.00 | 14 | 1004.3 |
| 20260505002101 | 82 | 227 | 16.5 | 16.5 | 0.00 | 0.00 | 0.00 | 14 | 1004.3 |
| 20260505001558 | 83 | 229 | 14.8 | 17.4 | 0.00 | 0.00 | 0.00 | 14 | 1004.4 |
| 20260505001055 | 83 | 230 | 13.0 | 20.0 | 0.00 | 0.00 | 0.00 | 13 | 1004.3 |
| 20260505000552 | 83 | 236 | 11.3 | 20.0 | 0.00 | 0.00 | 0.00 | 13 | 1004.3 |
| 20260505000050 | 83 | 227 | 13.9 | 20.9 | 0.00 | 0.00 | 0.00 | 13 | 1004.2 |
| 20260504235546 | 83 | 234 | 6.1 | 19.1 | 0.00 | 0.00 | 0.00 | 13 | 1004.3 |
| 20260504235043 | 84 | 229 | 13.9 | 24.3 | 0.00 | 0.00 | 0.00 | 13 | 1004.3 |
| 20260504234540 | 84 | 234 | 13.0 | 18.2 | 0.00 | 0.00 | 0.00 | 13 | 1004.4 |
| 20260504234037 | 84 | 223 | 11.3 | 23.5 | 0.00 | 0.00 | 0.00 | 14 | 1004.3 |
| 20260504233532 | 84 | 214 | 13.0 | 19.1 | 0.00 | 0.00 | 0.00 | 16 | 1004.1 |
| 20260504233029 | 84 | 233 | 10.4 | 17.4 | 0.00 | 0.00 | 0.00 | 17 | 1004.2 |
| 20260504232526 | 84 | 235 | 8.7 | 15.6 | 0.00 | 0.00 | 0.00 | 17 | 1004.3 |
| 20260504232024 | 84 | 224 | 7.8 | 12.2 | 0.00 | 0.00 | 0.00 | 20 | 1004.1 |
| 20260504231521 | 84 | 226 | 5.2 | 11.3 | 0.00 | 0.00 | 0.00 | 21 | 1004.2 |
| 20260504231017 | 85 | 228 | 8.7 | 12.2 | 0.00 | 0.00 | 0.00 | 20 | 1004.1 |
| 20260504230513 | 84 | 246 | 4.3 | 15.6 | 0.00 | 0.00 | 0.00 | 20 | 1004.3 |
| 20260504230013 | 84 | 246 | 10.4 | 13.0 | 0.00 | 0.00 | 0.00 | 21 | 1004.2 |
| 20260504225509 | 84 | 241 | 8.7 | 14.8 | 0.00 | 0.00 | 0.00 | 22 | 1004.5 |
| 20260504225006 | 85 | 229 | 9.6 | 13.0 | 0.00 | 0.00 | 0.00 | 21 | 1004.4 |
| 20260504224502 | 85 | 253 | 7.8 | 20.9 | 0.00 | 0.00 | 0.00 | 22 | 1004.5 |
| 20260504223959 | 85 | 228 | 11.3 | 19.1 | 0.00 | 0.00 | 0.00 | 22 | 1004.7 |
| 20260504223456 | 86 | 238 | 7.8 | 16.5 | 0.00 | 0.00 | 0.00 | 21 | 1004.7 |
| 20260504222951 | 85 | 226 | 4.3 | 10.4 | 0.00 | 0.00 | 0.00 | 21 | 1004.7 |
| 20260504222449 | 85 | 243 | 7.8 | 15.6 | 0.00 | 0.00 | 0.00 | 20 | 1005.0 |
| 20260504221947 | 86 | 259 | 3.5 | 10.4 | 0.00 | 0.00 | 0.00 | 19 | 1004.8 |
| 20260504221444 | 85 | 299 | 3.5 | 11.3 | 0.00 | 0.00 | 0.00 | 20 | 1004.9 |
| 20260504220941 | 86 | 247 | 10.4 | 13.0 | 0.00 | 0.00 | 0.00 | 20 | 1004.9 |
| 20260504220437 | 86 | 230 | 7.8 | 15.6 | 0.00 | 0.00 | 0.00 | 20 | 1004.9 |
| 20260504215934 | 86 | 213 | 9.6 | 13.9 | 0.00 | 0.00 | 0.00 | 19 | 1004.9 |
| 20260504215431 | 86 | 238 | 7.8 | 11.3 | 0.00 | 0.00 | 0.00 | 19 | 1004.9 |
| 20260504214927 | 85 | 246 | 3.5 | 13.0 | 0.00 | 0.00 | 0.00 | 20 | 1005.0 |
| 20260504214424 | 86 | 250 | 5.2 | 16.5 | 0.00 | 0.00 | 0.00 | 20 | 1005.1 |
| 20260504213920 | 85 | 287 | 5.2 | 12.2 | 0.00 | 0.00 | 0.00 | 20 | 1005.2 |
| 20260504213416 | 85 | 286 | 10.4 | 14.8 | 0.00 | 0.00 | 0.00 | 20 | 1005.2 |
| 20260504212914 | 85 | 234 | 11.3 | 19.1 | 0.00 | 0.00 | 0.00 | 20 | 1005.2 |
| 20260504212409 | 85 | 206 | 13.9 | 20.0 | 0.00 | 0.00 | 0.00 | 20 | 1005.2 |
| 20260504211908 | 85 | 241 | 7.0 | 16.5 | 0.00 | 0.00 | 0.00 | 21 | 1005.3 |
| 20260504211404 | 85 | 226 | 7.8 | 14.8 | 0.00 | 0.00 | 0.00 | 21 | 1005.8 |
| 20260504210901 | 85 | 233 | 10.4 | 16.5 | 0.00 | 0.00 | 0.00 | 21 | 1005.7 |
| 20260504210358 | 85 | 232 | 8.7 | 17.4 | 0.00 | 0.00 | 0.00 | 21 | 1005.8 |
| 20260504205855 | 85 | 235 | 9.6 | 20.0 | 0.00 | 0.00 | 0.00 | 20 | 1005.9 |
| 20260504205353 | 85 | 230 | 11.3 | 16.5 | 0.00 | 0.00 | 0.00 | 20 | 1006.0 |
| 20260504204851 | 85 | 234 | 5.2 | 10.4 | 0.00 | 0.00 | 0.00 | 23 | 1005.9 |
| 20260504204349 | 84 | 239 | 7.0 | 12.2 | 0.00 | 0.00 | 0.00 | 22 | 1006.0 |
| 20260504203848 | 84 | 227 | 11.3 | 18.2 | 0.00 | 0.00 | 0.00 | 22 | 1006.1 |
| 20260504203344 | 85 | 225 | 10.4 | 16.5 | 0.00 | 0.00 | 0.00 | 22 | 1006.0 |
| 20260504202840 | 85 | 322 | 2.6 | 7.8 | 0.00 | 0.00 | 0.00 | 23 | 1006.2 |
| 20260504202338 | 86 | 224 | 6.1 | 13.0 | 0.00 | 0.00 | 0.00 | 23 | 1006.1 |
| 20260504201834 | 85 | 230 | 7.0 | 13.0 | 0.00 | 0.00 | 0.00 | 23 | 1006.4 |
| 20260504201332 | 85 | 225 | 12.2 | 19.1 | 0.00 | 0.00 | 0.00 | 22 | 1006.4 |
| 20260504200829 | 84 | 236 | 9.6 | 14.8 | 0.00 | 0.00 | 0.00 | 22 | 1006.6 |
| 20260504200325 | 84 | 247 | 5.2 | 18.2 | 0.00 | 0.00 | 0.00 | 23 | 1006.6 |
| 20260504195822 | 84 | 231 | 8.7 | 11.3 | 0.00 | 0.00 | 0.00 | 23 | 1006.7 |
| 20260504195317 | 84 | 229 | 8.7 | 13.0 | 0.00 | 0.00 | 0.00 | 23 | 1006.7 |
| 20260504194814 | 84 | 234 | 8.7 | 15.6 | 0.00 | 0.00 | 0.00 | 23 | 1006.6 |
| 20260504194310 | 83 | 247 | 7.0 | 13.0 | 0.00 | 0.00 | 0.00 | 23 | 1006.9 |
| 20260504193807 | 83 | 227 | 11.3 | 12.2 | 0.00 | 0.00 | 0.00 | 24 | 1007.0 |
| 20260504193304 | 83 | 227 | 7.0 | 13.9 | 0.00 | 0.00 | 0.00 | 25 | 1007.1 |
| 20260504192803 | 84 | 308 | 3.5 | 10.4 | 0.00 | 0.00 | 0.00 | 26 | 1007.1 |
| 20260504192300 | 83 | 274 | 5.2 | 9.6 | 0.00 | 0.00 | 0.00 | 25 | 1007.1 |
| 20260504191759 | 82 | 238 | 6.1 | 12.2 | 0.00 | 0.00 | 0.00 | 26 | 1007.0 |
| 20260504191256 | 83 | 232 | 7.0 | 8.7 | 0.00 | 0.00 | 0.00 | 25 | 1007.1 |
| 20260504190751 | 83 | 303 | 8.7 | 15.6 | 0.00 | 0.00 | 0.00 | 25 | 1007.2 |
| 20260504190248 | 83 | 271 | 1.7 | 6.1 | 0.00 | 0.00 | 0.00 | 26 | 1007.4 |
| 20260504185744 | 82 | 226 | 5.2 | 13.0 | 0.00 | 0.00 | 0.00 | 26 | 1007.3 |
| 20260504185241 | 83 | 232 | 7.0 | 11.3 | 0.00 | 0.00 | 0.00 | 26 | 1007.4 |
| 20260504184737 | 83 | 295 | 7.0 | 15.6 | 0.00 | 0.00 | 0.00 | 25 | 1007.7 |
| 20260504184233 | 83 | 295 | 5.2 | 12.2 | 0.00 | 0.00 | 0.00 | 26 | 1007.6 |
| 20260504183729 | 82 | 286 | 3.5 | 11.3 | 0.00 | 0.00 | 0.00 | 26 | 1007.8 |
| 20260504183226 | 83 | 239 | 7.0 | 16.5 | 0.00 | 0.00 | 0.00 | 25 | 1008.0 |
| 20260504182724 | 83 | 206 | 3.5 | 14.8 | 0.00 | 0.00 | 0.00 | 25 | 1007.8 |
| 20260504182221 | 82 | 267 | 5.2 | 12.2 | 0.00 | 0.00 | 0.00 | 25 | 1008.1 |
| 20260504181719 | 82 | 248 | 3.5 | 13.9 | 0.00 | 0.00 | 0.00 | 26 | 1008.2 |
| 20260504181216 | 82 | 237 | 5.2 | 13.0 | 0.00 | 0.00 | 0.00 | 25 | 1008.3 |
| 20260504180715 | 82 | 278 | 10.4 | 12.2 | 0.00 | 0.00 | 0.00 | 24 | 1008.4 |
| 20260504180213 | 82 | 313 | 2.6 | 10.4 | 0.00 | 0.00 | 0.00 | 25 | 1008.6 |
| 20260504175710 | 82 | 289 | 10.4 | 14.8 | 0.00 | 0.00 | 0.00 | 24 | 1008.6 |
| 20260504175207 | 82 | 294 | 10.4 | 16.5 | 0.00 | 0.00 | 0.00 | 26 | 1008.9 |
| 20260504174705 | 82 | 231 | 14.8 | 15.6 | 0.00 | 0.00 | 0.00 | 27 | 1008.7 |
| 20260504174203 | 81 | 235 | 11.3 | 14.8 | 0.00 | 0.00 | 0.00 | 27 | 1008.9 |
| 20260504173659 | 81 | 233 | 5.2 | 14.8 | 0.00 | 0.00 | 0.00 | 28 | 1008.9 |
| 20260504173156 | 81 | 323 | 13.0 | 18.2 | 0.00 | 0.00 | 0.00 | 26 | 1008.9 |
| 20260504172652 | 81 | 292 | 4.3 | 13.0 | 0.00 | 0.00 | 0.00 | 28 | 1009.2 |
| 20260504172149 | 81 | 230 | 12.2 | 13.9 | 0.00 | 0.00 | 0.00 | 27 | 1009.1 |
| 20260504171645 | 80 | 220 | 11.3 | 13.9 | 0.00 | 0.00 | 0.00 | 27 | 1009.0 |
| 20260504171143 | 81 | 240 | 6.1 | 13.9 | 0.00 | 0.00 | 0.00 | 28 | 1009.0 |
| 20260504170639 | 81 | 227 | 12.2 | 13.0 | 0.00 | 0.00 | 0.00 | 27 | 1009.2 |
| 20260504170137 | 81 | 286 | 7.0 | 13.0 | 0.00 | 0.00 | 0.00 | 26 | 1009.2 |
| 20260504151022 | 72 | 243 | 2.6 | 12.2 | 0.00 | 0.00 | 0.00 | 44 | 1009.7 |
| 20260504150520 | 71 | 243 | 4.3 | 9.6 | 0.00 | 0.00 | 0.00 | 45 | 1009.9 |